Location: *
(43.0409°N, 0.1694°E)
Time: 22:32:54
(UTC+00:00)

Cosmos 2150 Rocket - Pass Details

Date: 03 October 2023
Orbit: 748 x 806 km, 74.0° (Epoch: 04 December)

Event Time Altitude Azimuth Distance (km) Brightness Sun altitude
Exits shadow 03:49:01 55° 202° (SSW) 937 4.1 -24.1°
Maximum altitude 03:50:15 88° 288° (WNW) 785 3.9 -23.9°
Drops below altitude 10° 03:55:32 10° 20° (NNE) 2,319 6.9 -23.0°
Sets 03:57:54 0° 21° (NNE) 3,240 7.8 -22.6°
